Location: Babice
(50.3480°N, 22.9363°E)
Time: 12:33:18
(UTC+00:00)

Gbstr 26 Del rocket - Pass Details

Date: 14 July 2020
Orbit: 492 x 1264 km, 51.8° (Epoch: 08 August)

Event Time Altitude Azimuth Distance (km) Brightness Sun altitude
Rises 01:40:04 0° 288° (WNW) 2,723 6.1 -7.2°
Reaches altitude 10° 01:42:17 10° 278° (W) 1,901 5.2 -6.9°
Maximum altitude 01:46:09 33° 214° (SSW) 1,090 3.8 -6.5°
Drops below altitude 10° 01:50:43 10° 151° (SSE) 2,259 5.8 -6.0°
Sets 01:53:35 0° 142° (SE) 3,326 6.7 -5.7°
